| time (UTC) | temp F | wind direction | speed knots | gust knots | rain 1hr in | rain 24hr in | rain mn in | humidity % | barometer mb |
| 20260506121611 | 56 | 36 | 2.6 | 10.4 | 0.00 | 0.00 | 0.00 | 42 | 1012.5 |
| 20260506120058 | 56 | 5 | 1.7 | 7.0 | 0.00 | 0.00 | 0.00 | 44 | 1012.6 |
| 20260506114557 | 56 | 114 | 2.6 | 7.8 | 0.00 | 0.00 | 0.00 | 41 | 1012.5 |
| 20260506113054 | 56 | 205 | 0.0 | 7.0 | 0.00 | 0.00 | 0.00 | 39 | 1012.8 |
| 20260506111555 | 56 | 53 | 2.6 | 7.0 | 0.00 | 0.00 | 0.00 | 43 | 1012.8 |
| 20260506110104 | 56 | 29 | 2.6 | 7.0 | 0.00 | 0.00 | 0.00 | 38 | 1012.8 |
| 20260506104606 | 55 | 341 | 0.9 | 5.2 | 0.00 | 0.00 | 0.00 | 44 | 1012.8 |
| 20260506103103 | 53 | 70 | 0.9 | 6.1 | 0.00 | 0.00 | 0.00 | 45 | 1013.0 |
| 20260506101618 | 53 | 355 | 1.7 | 7.8 | 0.00 | 0.00 | 0.00 | 45 | 1013.2 |
| 20260506100058 | 53 | 123 | 2.6 | 7.0 | 0.00 | 0.00 | 0.00 | 42 | 1013.2 |
| 20260506094559 | 52 | 304 | 1.7 | 4.3 | 0.00 | 0.00 | 0.00 | 44 | 1013.1 |
| 20260506093100 | 52 | 142 | 0.9 | 7.8 | 0.00 | 0.00 | 0.00 | 44 | 1013.3 |
| 20260506091556 | 51 | 311 | 1.7 | 5.2 | 0.00 | 0.00 | 0.00 | 45 | 1013.3 |
| 20260506090111 | 52 | 325 | 2.6 | 7.0 | 0.00 | 0.00 | 0.00 | 48 | 1013.3 |
| 20260506084632 | 52 | 329 | 0.9 | 5.2 | 0.00 | 0.00 | 0.00 | 48 | 1013.3 |
| 20260506083058 | 51 | 77 | 1.7 | 4.3 | 0.00 | 0.00 | 0.00 | 49 | 1013.4 |
| 20260506081611 | 50 | 271 | 2.6 | 7.0 | 0.00 | 0.00 | 0.00 | 51 | 1013.4 |
| 20260506073056 | 49 | 98 | 0.9 | 5.2 | 0.00 | 0.00 | 0.00 | 56 | 1013.2 |
| 20260506071559 | 49 | 5 | 2.6 | 5.2 | 0.00 | 0.00 | 0.00 | 60 | 1013.2 |
| 20260506061556 | 48 | 224 | 1.7 | 5.2 | 0.00 | 0.00 | 0.00 | 60 | 1012.8 |
| 20260506050117 | 44 | 20 | 0.9 | 2.6 | 0.00 | 0.00 | 0.00 | 67 | 1013.0 |
| 20260506044554 | 43 | 328 | 0.0 | 1.7 | 0.00 | 0.00 | 0.00 | 70 | 1012.8 |
| 20260506043059 | 40 | 0 | 0.0 | 0.9 | 0.00 | 0.00 | 0.00 | 75 | 1012.8 |
| 20260506041602 | 39 | 275 | 0.0 | 1.7 | 0.00 | 0.00 | 0.00 | 78 | 1012.6 |
| 20260506040057 | 37 | 275 | 0.0 | 1.7 | 0.00 | 0.00 | 0.00 | 81 | 1012.3 |
| 20260506034558 | 36 | 275 | 0.0 | 0.9 | 0.00 | 0.00 | 0.00 | 85 | 1012.2 |
| 20260506033054 | 34 | 0 | 0.0 | 0.0 | 0.00 | 0.00 | 0.00 | 89 | 1012.1 |
| 20260506031556 | 33 | 0 | 0.0 | 0.0 | 0.00 | 0.00 | 0.00 | 89 | 1011.8 |
| 20260506030058 | 33 | 0 | 0.0 | 0.0 | 0.00 | 0.00 | 0.00 | 88 | 1011.6 |
| 20260506024608 | 33 | 0 | 0.0 | 0.9 | 0.00 | 0.00 | 0.00 | 88 | 1011.5 |
| 20260506023108 | 33 | 0 | 0.0 | 0.0 | 0.00 | 0.00 | 0.00 | 88 | 1011.5 |
| 20260506021556 | 33 | 0 | 0.0 | 0.0 | 0.00 | 0.00 | 0.00 | 86 | 1011.3 |
| 20260506020057 | 33 | 0 | 0.0 | 0.0 | 0.00 | 0.00 | 0.00 | 87 | 1011.1 |
| 20260506014557 | 33 | 0 | 0.0 | 0.0 | 0.00 | 0.00 | 0.00 | 84 | 1011.0 |
| 20260506013059 | 34 | 0 | 0.0 | 0.0 | 0.00 | 0.00 | 0.00 | 84 | 1010.9 |
| 20260506011606 | 34 | 0 | 0.0 | 0.0 | 0.00 | 0.00 | 0.00 | 82 | 1010.9 |
| 20260506010055 | 35 | 0 | 0.0 | 0.0 | 0.00 | 0.00 | 0.00 | 81 | 1010.7 |
| 20260506004600 | 36 | 0 | 0.0 | 0.0 | 0.00 | 0.00 | 0.00 | 79 | 1010.4 |
| 20260506003054 | 37 | 0 | 0.0 | 0.0 | 0.00 | 0.00 | 0.00 | 78 | 1010.3 |
| 20260506001559 | 38 | 0 | 0.0 | 0.0 | 0.00 | 0.00 | 0.00 | 76 | 1010.1 |
| 20260506000104 | 39 | 0 | 0.0 | 0.9 | 0.00 | 0.00 | 0.00 | 76 | 1010.1 |
| 20260505234555 | 39 | 0 | 0.0 | 0.9 | 0.00 | 0.00 | 0.00 | 74 | 1010.1 |
| 20260505233058 | 40 | 0 | 0.0 | 1.7 | 0.00 | 0.00 | 0.00 | 74 | 1010.0 |
| 20260505231555 | 40 | 319 | 0.0 | 0.9 | 0.00 | 0.00 | 0.00 | 74 | 1010.0 |
| 20260505230121 | 41 | 0 | 0.0 | 2.6 | 0.00 | 0.00 | 0.00 | 73 | 1009.9 |
| 20260505224556 | 42 | 0 | 0.0 | 1.7 | 0.00 | 0.00 | 0.00 | 73 | 1009.8 |
| 20260505223058 | 43 | 336 | 0.0 | 1.7 | 0.00 | 0.00 | 0.00 | 70 | 1009.7 |
| 20260505221603 | 44 | 309 | 0.0 | 3.5 | 0.00 | 0.00 | 0.00 | 69 | 1009.7 |
| 20260505214604 | 46 | 349 | 1.7 | 4.3 | 0.00 | 0.00 | 0.00 | 69 | 1009.2 |
| 20260505213055 | 46 | 355 | 1.7 | 7.8 | 0.00 | 0.00 | 0.00 | 69 | 1009.0 |
| 20260505211605 | 47 | 326 | 1.7 | 5.2 | 0.00 | 0.00 | 0.00 | 72 | 1008.9 |
| 20260505210107 | 48 | 336 | 1.7 | 5.2 | 0.00 | 0.00 | 0.00 | 72 | 1008.8 |
| 20260505204602 | 48 | 294 | 2.6 | 7.0 | 0.00 | 0.00 | 0.00 | 71 | 1008.5 |
| 20260505203107 | 48 | 291 | 0.9 | 6.1 | 0.00 | 0.00 | 0.00 | 71 | 1008.3 |
| 20260505201557 | 49 | 312 | 2.6 | 7.8 | 0.00 | 0.00 | 0.00 | 69 | 1008.3 |
| 20260505200109 | 49 | 271 | 2.6 | 7.8 | 0.00 | 0.00 | 0.00 | 68 | 1008.1 |
| 20260505194556 | 49 | 252 | 3.5 | 7.0 | 0.00 | 0.00 | 0.00 | 67 | 1007.9 |
| 20260505193103 | 50 | 267 | 3.5 | 7.0 | 0.00 | 0.00 | 0.00 | 66 | 1008.0 |
| 20260505191602 | 50 | 282 | 1.7 | 5.2 | 0.00 | 0.00 | 0.00 | 65 | 1007.8 |
| 20260505190054 | 50 | 270 | 2.6 | 7.0 | 0.00 | 0.00 | 0.00 | 64 | 1007.7 |
| 20260505184558 | 50 | 259 | 1.7 | 5.2 | 0.00 | 0.00 | 0.00 | 63 | 1007.7 |
| 20260505183056 | 50 | 284 | 1.7 | 7.0 | 0.00 | 0.00 | 0.00 | 60 | 1007.7 |
| 20260505181557 | 51 | 306 | 3.5 | 9.6 | 0.00 | 0.00 | 0.00 | 58 | 1007.4 |
| 20260505180058 | 52 | 261 | 6.1 | 8.7 | 0.00 | 0.00 | 0.00 | 56 | 1007.3 |
| 20260505174603 | 53 | 293 | 4.3 | 9.6 | 0.00 | 0.00 | 0.00 | 55 | 1007.2 |
| 20260505173057 | 54 | 298 | 5.2 | 9.6 | 0.00 | 0.00 | 0.00 | 52 | 1007.1 |
| 20260505171555 | 55 | 355 | 3.5 | 9.6 | 0.00 | 0.00 | 0.00 | 51 | 1007.0 |
| 20260505170056 | 55 | 321 | 0.9 | 9.6 | 0.00 | 0.00 | 0.00 | 53 | 1006.9 |
| 20260505164600 | 56 | 270 | 4.3 | 9.6 | 0.00 | 0.00 | 0.00 | 53 | 1006.8 |
| 20260505163059 | 56 | 309 | 5.2 | 9.6 | 0.00 | 0.00 | 0.00 | 52 | 1006.7 |
| 20260505161607 | 58 | 311 | 3.5 | 9.6 | 0.00 | 0.00 | 0.00 | 53 | 1006.8 |
| 20260505153055 | 61 | 296 | 6.1 | 12.2 | 0.00 | 0.00 | 0.00 | 52 | 1006.3 |
| 20260505151554 | 62 | 324 | 5.2 | 11.3 | 0.00 | 0.00 | 0.00 | 52 | 1006.0 |
| 20260505150105 | 64 | 304 | 4.3 | 11.3 | 0.00 | 0.00 | 0.00 | 50 | 1005.9 |
| 20260505130115 | 67 | 281 | 8.7 | 15.6 | 0.00 | 0.00 | 0.00 | 40 | 1005.8 |
| 20260505124608 | 66 | 247 | 5.2 | 12.2 | 0.00 | 0.00 | 0.00 | 47 | 1005.6 |
| 20260505123117 | 66 | 275 | 7.8 | 14.8 | 0.00 | 0.00 | 0.00 | 46 | 1005.8 |